Regional Weather Roundup
Issued by NWS

Current Version | Previous Version | Text Only | Print | Product List | Glossary On
Versions: 1 2 3 4 5 6 7 8 9 10 11 12 13 14 15 16 17 18 19 20 21 22 23 24 25 26 27 28 29 30 31 32 33 34 35 36 37 38 39 40 41 42 43 44 45 46 47 48 49 50
662
ASUS44 KMEG 291610
RWRTN
TENNESSEE HOURLY STATE WEATHER ROUNDUP
NATIONAL WEATHER SERVICE MEMPHIS TN
1100 AM CDT SUN MAY 29 2016

TNZ002-004-019-021-049-052-054-088>092-291700-
WEST TENNESSEE

CITY           SKY/WX    TMP DP  RH WIND       PRES   REMARKS
MEMPHIS INTL   PTSUNNY   84  69  60 W6        30.13S
NWS MEMPHIS      N/A     81 N/A N/A MISG        N/A
JACKSON        MOSUNNY   81  68  64 SW6       30.13S
DYERSBURG      MOSUNNY   81  68  65 SW3       30.12S
UNION CITY     MOSUNNY   81  70  69 VRB3      30.11R
PARIS          PTSUNNY   79  66  65 W7        30.13S
LEXINGTON      MOSUNNY   84  66  54 VRB5      30.13F
$$

TNZ008-025-027-028-033-062-065-066-291700-
NORTH MIDDLE TENNESSEE

CITY           SKY/WX    TMP DP  RH WIND       PRES   REMARKS
NASHVILLE      PTSUNNY   83  65  54 NW8       30.14S
CLARKSVILLE    PTSUNNY   82  70  66 CALM      30.11F
SMYRNA         PTSUNNY   83  68  60 VRB3      30.15S
COOKEVILLE     SUNNY     82  66  57 VRB3      30.15F
CROSSVILLE     MOSUNNY   77  60  55 VRB7      30.20F
$$

TNZ061-075-076-078-094-096-097-291700-
SOUTH MIDDLE TENNESSEE

CITY           SKY/WX    TMP DP  RH WIND       PRES   REMARKS
FAYETTEVILLE   MOSUNNY   81  66  61 VRB7      30.16F
TULLAHOMA      SUNNY     81  66  61 VRB3      30.17F
WINCHESTER     SUNNY     81  64  57 VRB5      30.16F
MCMINNVILLE    MOSUNNY   82  66  57 N5        30.16S
COLUMBIA       MOSUNNY   81  73  78 N6        30.13F
SHELBYVILLE    MOSUNNY   84  68  58 VRB3      30.16S
$$

TNZ017-018-042-046-047-291700-
NORTHEAST TENNESSEE

CITY           SKY/WX    TMP DP  RH WIND       PRES   REMARKS
TRI CITIES     CLOUDY    74  59  59 CALM      30.18S
$$

TNZ012-013-036-069-073-074-291700-
CENTRAL EAST TENNESSEE

CITY           SKY/WX    TMP DP  RH WIND       PRES   REMARKS
KNOXVILLE      CLOUDY    79  64  60 N3        30.15
OAK RIDGE      CLOUDY    81  62  52 CALM      30.15F
GATLINBURG     PTSUNNY   79  61  53 NW6       30.14S
$$

TNZ083-085-099-291700-
SOUTHEAST TENNESSEE

CITY           SKY/WX    TMP DP  RH WIND       PRES   REMARKS
CHATTANOOGA    CLOUDY    81  62  52 VRB5      30.15S
$$

SKY/WX REPORTED AS FAIR MEANS FEW OR NO CLOUDS BELOW
12 THOUSAND FEET.





USA.gov is the U.S. government's official web portal to all federal, state and local government web resources and services.